Location: Dompnac
(44.5644°N, 4.1026°E)
Time: 07:59:40
(UTC+00:00)

X-37B - Visible Passes

Search period start: 26 November 2020 00:00
Search period end: 06 December 2020 00:00
Orbit: 384 x 389 km, 45.0° (Epoch: 12 November)

Date Brightness Start Highest point End Pass type
(mag) Time Alt. Az. Time Alt. Az. Time Alt. Az.
26 Nov 2.9 17:30:14 10° S 17:31:37 12° SE 17:31:54 12° SE visible
27 Nov 2.2 18:06:22 10° SW 18:08:23 27° S 18:08:23 27° S visible
28 Nov 2.4 17:08:24 10° SSW 17:10:51 20° SSE 17:12:32 14° ESE visible
28 Nov 3.6 18:43:59 10° WSW 18:44:49 17° WSW 18:44:49 17° WSW visible
29 Nov 0.9 17:45:32 10° WSW 17:48:37 50° SSE 17:48:55 48° SE visible
30 Nov 1.8 16:47:14 10° SW 16:50:08 33° SSE 16:52:59 10° E visible
30 Nov 2.4 18:23:24 10° W 18:25:15 32° W 18:25:15 32° W visible
01 Dec 0.6 17:24:51 10° WSW 17:28:01 73° SSE 17:29:18 32° E visible
01 Dec 4.2 19:01:30 10° W 19:01:34 11° W 19:01:34 11° W visible
02 Dec 1.0 18:02:53 10° W 18:05:36 61° WNW 18:05:36 61° WNW visible
03 Dec 0.5 17:04:17 10° W 17:07:28 89° N 17:09:39 18° E visible
03 Dec 3.4 18:40:57 10° W 18:41:55 18° W 18:41:55 18° W visible
04 Dec 0.5 17:42:21 10° W 17:45:32 81° N 17:46:00 61° ENE visible
05 Dec 0.6 16:43:45 10° W 16:46:56 80° N 16:50:06 10° E visible
05 Dec 2.3 18:20:25 10° W 18:22:24 34° W 18:22:24 34° W visible
